Location: Zagreb
(45.8000°N, 16.0000°E)
Time: 15:23:16
(UTC+02:00)

Transit 2A - Pass Details

Date: 11 August 2022
Orbit: 601 x 956 km, 66.7° (Epoch: 25 September)

Event Time Altitude Azimuth Distance (km) Brightness Sun altitude
Rises 22:47:14 0° 306° (NW) 2,867 10.2 -22.0°
Reaches altitude 10° 22:50:58 10° 273° (W) 1,988 8.6 -22.4°
Maximum altitude 22:52:26 11° 254° (WSW) 1,906 8.2 -22.5°
Drops below altitude 10° 22:53:55 10° 234° (SW) 2,022 8.2 -22.7°
Enters shadow 22:54:33 - 227° (SW) 2,129 8.2 -22.7°
Sets 22:57:49 0° 202° (SSW) 2,996 - -23.1°
